Regional Weather Roundup
Issued by NWS

Home | Current Version | Previous Version | Text Only | Print | Product List | Glossary On
Versions: 1 2 3 4 5 6 7 8 9 10 11 12 13 14 15 16 17 18 19 20 21 22 23 24 25 26 27
000
ASUS44 KLIX 222014
RWRLA
LOUISIANA WEATHER ROUNDUP
NATIONAL WEATHER SERVICE NEW ORLEANS LA
300 PM CDT SAT JUL 22 2017

NOTE: "FAIR" INDICATES FEW OR NO CLOUDS BELOW 12,000 FEET WITH NO
      SIGNIFICANT WEATHER AND/OR OBSTRUCTIONS TO VISIBILITY.
      SKY/WX - SKY CONDITION AND SIGNIFICANT WEATHER.
      TMP - AIR TEMPERATURE.    DP   - DEWPOINT TEMPERATURE.
      RH  - RELATIVE HUMIDITY.  PRES - PRESSURE.
      HX  - HEAT INDEX.         WCI  - WIND CHILL INDEX.

*  THESE STATIONS ARE NOT NWS OR FAA STATIONS AND ARE NOT UNDER
   NWS QUALITY CONTROL.

LAZ040-048-061>063-065-066-069-222100-
SOUTHEAST LOUISIANA

CITY           SKY/WX    TMP DP  RH WIND       PRES   REMARKS
N.O. INTL ARPT CLOUDY    81  76  84 SW8       30.02R THUNDER
N.O. LAKEFRONT LGT RAIN  78  75  90 SW20      30.01F
N.O. DOWNTOWN* TSTM      77  73  88 SW7         N/A  VSB 3/4
RESERVE*       MOCLDY    79  73  83 S14       30.02S
SLIDELL        CLOUDY    85  74  69 E6        29.98S
BATON ROUGE    CLOUDY    79  74  84 CALM      30.00R
BOOTHVILLE     NOT AVBL
BELLE CHASSE   PTSUNNY   91  77  63 NE10      30.00R THUNDER HX 104
BOGALUSA*      FAIR      86  76  72 SE5       29.99F THUNDER HX  96
GALLIANO*      MOCLDY    89  75  62 S14G20    30.01R THUNDER HX  99
NEW ROADS*     CLOUDY    76  72  88 SE8       29.98S
GONZALES*      CLOUDY    77  72  84 S13       30.03R
HAMMOND*       CLOUDY    82  68  61 S5        30.00S THUNDER
HOUMA*         NOT AVBL
PORT FOURCHON* MOCLDY    82  75  78 SW15G26   30.01S HAZE

$$

LAZ041-044-053-054-222100-
SOUTHWEST LOUISIANA

CITY           SKY/WX    TMP DP  RH WIND       PRES   REMARKS
LAKE CHARLES   LGT RAIN  85  75  72 N8        29.96F
LAFAYETTE      CLOUDY    83  74  74 S7        29.99F
PATTERSON      LGT RAIN  76  74  93 S10       30.02F
SALT POINT       N/A     78  74  87 SE7       30.00F
NEW IBERIA     CLOUDY    82  71  69 S9        29.99F
CHENAULT AIRPK PTSUNNY   81  75  83 VRB3      29.98S THUNDER

$$

LAZ027-028-222100-
CENTRAL LOUISIANA

CITY           SKY/WX    TMP DP  RH WIND       PRES   REMARKS
FORT POLK      TSTM      75  73  94 S6        29.96F FOG
ALEXANDRIA INT PTSUNNY   83  74  74 S10       29.94S
ALEXANDRIA     MOSUNNY   93  76  57 S9        29.94F HX 105

$$

LAZ001-002-222100-
NORTHWEST LOUISIANA

CITY           SKY/WX    TMP DP  RH WIND       PRES   REMARKS
SHREVEPORT     PTSUNNY   93  74  53 S7        29.92F HX 103
BARKSDALE AFB  MOSUNNY   96  73  47 S8        29.92F HX 104
DTN SHREVEPORT CLOUDY    93  72  50 SW7       29.92F HX 101

$$

LAZ014-016-222100-
NORTHEAST LOUISIANA

CITY           SKY/WX    TMP DP  RH WIND       PRES   REMARKS
MONROE         PTSUNNY   93  71  48 CALM      29.92F HX 100
TALLULAH       PTSUNNY   86  76  71 VRB3      29.94F HX  96

$$





USA.gov is the U.S. government's official web portal to all federal, state and local government web resources and services.